(80571) = 2000 AQ116 = 2001 KY48

Discovered at Socorro on 2000-01-05 by LINEAR.

Orbit

Orbit type: Main Belt

Note: WebGL enabled browser required.

epoch2024-03-31.0
epoch JD2460400.5
perihelion date2023-03-29.07891
perihelion JD2460032.57891
argument of perihelion (°)150.89429
ascending node (°)252.43755
inclination (°)6.00804
eccentricity0.0782217
perihelion distance (AU)2.0847377
Tisserand w.r.t. Jupiter3.6
ΔV w.r.t. Earth (km/sec)9.1
semimajor axis (AU)2.2616475
mean anomaly (°)106.61575
mean daily motion (°/day)0.28977890
aphelion distance (AU)2.439
period (years)3.4
P-vector [x]0.72484428
P-vector [y]0.61008469
P-vector [z]0.31999601
Q-vector [x]-0.68164718
Q-vector [y]0.70241714
Q-vector [z]0.20485917
absolute magnitude15.62
phase slope0.15
uncertainty0
referenceE2024-GI3
observations used1906
oppositions17
arc length (days)8913
first opposition used1999
last opposition used2024
residual rms (arc-secs)0.62
perturbers coarse indicatorM-v
perturbers precise indicator003Ek
first observation date used1999-11-17.0
last observation date used2024-04-12.0
computer nameMPCLINUX
JD of orbit computation2456937.250125
perihelion JD uncertainty (days)1.0005E-04
argument of perihelion uncertainty (°)5.2623E-05
ascending node uncertainty (°)4.3955E-05
inclination uncertainty (°)3.6346E-06
eccentricity uncertainty 3.7735E-08
perihelion distance uncertainty (AU)8.5963E-08
Minimum Orbit Intersection Distances (in AU)
for orbit epoch: 2460400.5, reference: E2024-GI3
Mercury1.76341
Venus1.36522
Earth1.0965
Mars0.57001
Jupiter2.83955
Saturn6.89194
Uranus16.0949
Neptune27.746

Observations

1924 total observations over interval: 1999 11 17.43393 – 2024 03 15.894283
These data are available for download (format description).

Date (UT) J2000 RA J2000 Dec Magn Location Ref
1999 11 17.43393 08 21 54.61 +15 48 29.5 19.4   704 – Lincoln Laboratory ETS, New Mexico MPS 14096
1999 11 17.44920 08 21 55.05 +15 48 24.1 19.6   704 – Lincoln Laboratory ETS, New Mexico MPS 14096
1999 11 17.46449 08 21 55.55 +15 48 18.2 19.6   704 – Lincoln Laboratory ETS, New Mexico MPS 14096
1999 12 05.42748 08 26 22.54 +14 15 23.9 18.7 R 699 – Lowell Observatory-LONEOS MPS 14096
1999 12 05.45801 08 26 22.43 +14 15 16.1   699 – Lowell Observatory-LONEOS MPS 14096
1999 12 05.48858 08 26 22.26 +14 15 07.1   699 – Lowell Observatory-LONEOS MPS 14096
1999 12 06.42926 08 26 17.78 +14 11 05.9 18.6   704 – Lincoln Laboratory ETS, New Mexico MPS 14096
1999 12 06.44541 08 26 17.71 +14 11 00.7 18.9   704 – Lincoln Laboratory ETS, New Mexico MPS 14096
1999 12 06.45965 08 26 17.51 +14 10 58.1 19.0   704 – Lincoln Laboratory ETS, New Mexico MPS 14096
1999 12 06.47638 08 26 17.39 +14 10 53.1 18.8   704 – Lincoln Laboratory ETS, New Mexico MPS 14096
1999 12 06.49083 08 26 17.30 +14 10 48.1 18.7   704 – Lincoln Laboratory ETS, New Mexico MPS 14096
1999 12 14.36843 08 24 24.23 +13 40 56.5 18.7   704 – Lincoln Laboratory ETS, New Mexico MPS 14096
1999 12 14.38334 08 24 23.84 +13 40 53.5 19.2   704 – Lincoln Laboratory ETS, New Mexico MPS 14096
1999 12 14.39812 08 24 23.42 +13 40 50.7 19.2   704 – Lincoln Laboratory ETS, New Mexico MPS 14096
1999 12 14.41295 08 24 23.01 +13 40 47.9 18.9   704 – Lincoln Laboratory ETS, New Mexico MPS 14096
1999 12 14.42778 08 24 22.70 +13 40 44.4 18.9   704 – Lincoln Laboratory ETS, New Mexico MPS 14096
2000 01 05.29963 08 08 25.21 +12 58 47.3 18.7   704 – Lincoln Laboratory ETS, New Mexico MPS 9352
2000 01 05.31434 08 08 24.28 +12 58 46.7 18.8   704 – Lincoln Laboratory ETS, New Mexico MPS 9352
2000 01 05.34349 08 08 22.56 +12 58 45.7 20.0   704 – Lincoln Laboratory ETS, New Mexico MPS 9352
2000 01 05.35808 08 08 21.54 +12 58 45.8 19.1   704 – Lincoln Laboratory ETS, New Mexico MPS 9352
2000 01 07.30572 08 06 20.55 +12 57 58.3 18.0   704 – Lincoln Laboratory ETS, New Mexico MPS 9352
2000 01 07.32057 08 06 19.58 +12 57 59.6 19.6   704 – Lincoln Laboratory ETS, New Mexico MPS 9352
2000 01 07.33523 08 06 18.62 +12 57 57.2 18.9   704 – Lincoln Laboratory ETS, New Mexico MPS 9352
2000 01 07.34993 08 06 17.64 +12 57 56.9 18.6   704 – Lincoln Laboratory ETS, New Mexico MPS 9352
2000 01 07.36457 08 06 16.71 +12 57 56.8 18.7   704 – Lincoln Laboratory ETS, New Mexico MPS 9352
2000 02 02.24851 07 38 28.53 +13 21 06.3 18.0   704 – Lincoln Laboratory ETS, New Mexico MPS 10178
2000 02 02.25648 07 38 27.99 +13 21 06.5 18.4 R 703 – Catalina Sky Survey MPS 14096
2000 02 02.26290 07 38 27.68 +13 21 07.9 17.8   704 – Lincoln Laboratory ETS, New Mexico MPS 10178
2000 02 02.26829 07 38 27.30 +13 21 08.7 18.5 R 703 – Catalina Sky Survey MPS 14096
2000 02 02.27741 07 38 26.84 +13 21 10.0 18.3   704 – Lincoln Laboratory ETS, New Mexico MPS 10178
2000 02 02.28014 07 38 26.68 +13 21 09.8 18.1 R 703 – Catalina Sky Survey MPS 14096
2000 02 02.29172 07 38 26.02 +13 21 11.1 18.3   704 – Lincoln Laboratory ETS, New Mexico MPS 10178
2000 02 02.29188 07 38 25.94 +13 21 12.3 18.7 R 703 – Catalina Sky Survey MPS 14096
2000 02 02.30651 07 38 25.19 +13 21 12.7 18.2   704 – Lincoln Laboratory ETS, New Mexico MPS 10178
2000 02 04.23062 07 36 41.65 +13 24 33.1 18.1   704 – Lincoln Laboratory ETS, New Mexico MPS 10178
2000 02 04.24477 07 36 40.88 +13 24 35.4 18.0   704 – Lincoln Laboratory ETS, New Mexico MPS 10178
2000 02 04.27309 07 36 39.37 +13 24 38.2 18.5   704 – Lincoln Laboratory ETS, New Mexico MPS 10178
2000 02 04.28731 07 36 38.55 +13 24 38.9 18.8   704 – Lincoln Laboratory ETS, New Mexico MPS 10178
2001 05 24.33428 16 39 28.31 -22 59 42.9 18.6   704 – Lincoln Laboratory ETS, New Mexico MPS 31383
2001 05 24.35814 16 39 26.80 -22 59 35.2 19.1   704 – Lincoln Laboratory ETS, New Mexico MPS 31383
2001 05 24.36990 16 39 26.16 -22 59 31.7 19.3   704 – Lincoln Laboratory ETS, New Mexico MPS 31383
2001 05 24.38241 16 39 25.31 -22 59 28.6 19.3   704 – Lincoln Laboratory ETS, New Mexico MPS 31383
2001 05 26.27811 16 37 24.87 -22 50 30.5 18.7   704 – Lincoln Laboratory ETS, New Mexico MPS 31383
2001 05 26.29073 16 37 24.03 -22 50 26.7 19.6   704 – Lincoln Laboratory ETS, New Mexico MPS 31383
2001 05 26.30223 16 37 23.28 -22 50 24.2 19.1   704 – Lincoln Laboratory ETS, New Mexico MPS 31383
2001 05 26.31413 16 37 22.46 -22 50 20.7 19.2   704 – Lincoln Laboratory ETS, New Mexico MPS 31383
2001 05 26.32553 16 37 21.75 -22 50 17.6 19.1   704 – Lincoln Laboratory ETS, New Mexico MPS 31383
2001 05 27.27533 16 36 20.83 -22 45 42.2 18.2   704 – Lincoln Laboratory ETS, New Mexico MPS 31383
2001 05 27.29894 16 36 19.27 -22 45 36.5 18.7   704 – Lincoln Laboratory ETS, New Mexico MPS 31383
2001 05 27.31067 16 36 18.60 -22 45 34.2 19.1   704 – Lincoln Laboratory ETS, New Mexico MPS 31383
2002 09 06.33786 03 13 24.71 +24 17 10.0 19.6   704 – Lincoln Laboratory ETS, New Mexico MPS 67574
2002 09 06.36620 03 13 25.87 +24 17 15.1 19.7   704 – Lincoln Laboratory ETS, New Mexico MPS 67574
2002 09 06.38039 03 13 26.53 +24 17 18.7 19.6   704 – Lincoln Laboratory ETS, New Mexico MPS 67574
2002 09 06.39458 03 13 27.20 +24 17 21.0 19.9   704 – Lincoln Laboratory ETS, New Mexico MPS 67574
2002 10 04.33580 03 21 52.19 +24 50 21.3 18.9   704 – Lincoln Laboratory ETS, New Mexico MPS 67574
2002 10 04.36683 03 21 51.73 +24 50 17.3 20.1   704 – Lincoln Laboratory ETS, New Mexico MPS 67574
2002 10 04.38223 03 21 51.56 +24 50 17.0 20.0   704 – Lincoln Laboratory ETS, New Mexico MPS 67574
2002 10 04.39769 03 21 51.23 +24 50 15.6 19.5   704 – Lincoln Laboratory ETS, New Mexico MPS 67574
2002 10 10.32774 03 20 05.27 +24 39 06.7 18.7   704 – Lincoln Laboratory ETS, New Mexico MPS 62813
2002 10 10.34353 03 20 04.79 +24 39 04.4 19.0   704 – Lincoln Laboratory ETS, New Mexico MPS 62813
2002 10 10.35942 03 20 04.29 +24 39 00.5 19.3   704 – Lincoln Laboratory ETS, New Mexico MPS 62813
2002 10 10.37520 03 20 03.93 +24 38 59.9 18.8   704 – Lincoln Laboratory ETS, New Mexico MPS 62813
2002 10 10.39100 03 20 03.51 +24 38 55.9 18.8   704 – Lincoln Laboratory ETS, New Mexico MPS 62813
2002 10 12.33612 03 19 12.08 +24 33 38.4 18.3   704 – Lincoln Laboratory ETS, New Mexico MPS 62813
2002 10 12.35290 03 19 11.56 +24 33 35.8 19.0   704 – Lincoln Laboratory ETS, New Mexico MPS 62813
2002 10 12.36976 03 19 11.00 +24 33 32.7 18.8   704 – Lincoln Laboratory ETS, New Mexico MPS 62813
2002 10 12.38653 03 19 10.46 +24 33 29.8 19.0   704 – Lincoln Laboratory ETS, New Mexico MPS 62813
2002 10 12.40336 03 19 09.92 +24 33 26.9 18.8   704 – Lincoln Laboratory ETS, New Mexico MPS 62813
2002 10 28.58452 03 07 29.96 +23 18 06.9 18.9   608 – Haleakala-AMOS MPS 65509
2002 10 28.59524 03 07 29.36 +23 18 02.4 19.0   608 – Haleakala-AMOS MPS 65509
2002 10 28.60594 03 07 28.74 +23 17 58.4 19.0   608 – Haleakala-AMOS MPS 65509
2002 11 05.22758 03 00 04.09 +22 24 42.6 18.2   704 – Lincoln Laboratory ETS, New Mexico MPS 65509
2002 11 05.24469 03 00 02.99 +22 24 34.7 18.1   704 – Lincoln Laboratory ETS, New Mexico MPS 65509
2002 11 05.26187 03 00 01.89 +22 24 27.1 18.2   704 – Lincoln Laboratory ETS, New Mexico MPS 65509
2002 11 05.27931 03 00 00.81 +22 24 19.4 18.4   704 – Lincoln Laboratory ETS, New Mexico MPS 65509
2002 11 05.29672 02 59 59.69 +22 24 11.8 18.2   704 – Lincoln Laboratory ETS, New Mexico MPS 65509
2002 11 06.27367 02 59 00.44 +22 16 42.1 17.5 R 699 – Lowell Observatory-LONEOS MPS 65509
2002 11 06.29204 02 58 59.22 +22 16 33.7   699 – Lowell Observatory-LONEOS MPS 65509
2002 11 06.31041 02 58 58.07 +22 16 25.4   699 – Lowell Observatory-LONEOS MPS 65509
2002 11 06.32867 02 58 56.94 +22 16 16.7   699 – Lowell Observatory-LONEOS MPS 65509
2002 11 08.24721 02 57 00.09 +22 01 12.9 17.4   704 – Lincoln Laboratory ETS, New Mexico MPS 65509
2002 11 08.26474 02 56 58.95 +22 01 04.4 18.2   704 – Lincoln Laboratory ETS, New Mexico MPS 65509
2002 11 08.28218 02 56 57.82 +22 00 56.3 18.0   704 – Lincoln Laboratory ETS, New Mexico MPS 65509
2002 11 08.29950 02 56 56.79 +22 00 47.1 18.9   704 – Lincoln Laboratory ETS, New Mexico MPS 65509
2002 11 12.24517 02 52 57.50 +21 28 38.8 18.0   704 – Lincoln Laboratory ETS, New Mexico MPS 65509
